Weather History for Lamoni, IA

Change the Weather History Date:

Tuesday, April 23, 2013

  Actual Average Record
Temperature  
Mean Temperature 36 °F 54 °F  
Max Temperature 40 °F 64 °F 84 °F (1990)
Min Temperature 31 °F 44 °F 27 °F (1967)
Degree Days  
Heating Degree Days 29 11  
Month to date heating degree days 446 335  
Since 1 July heating degree days 5807 5824  
Cooling Degree Days 0 0  
Month to date cooling degree days 0 0  
Year to date cooling degree days 0 1  
Moisture  
Dew Point 30 °F    
Average Humidity 78    
Maximum Humidity 92    
Minimum Humidity 64    
Precipitation  
Precipitation 0.19 in 0.13 in 0.80 in (1948)
Month to date precipitation 6.96 2.57  
Sea Level Pressure  
Sea Level Pressure 30.10 in    
Wind  
Wind Speed 13 mph (North)    
Max Wind Speed 23 mph    
Max Gust Speed 31 mph    
Visibility 6 miles    
Events Fog , Rain , Snow    
T = Trace of Precipitation, MM = Missing Value Source: NWS Daily Summary

Daily Weather History Graph

Daily Weather History Graph

Search for Another Location

Airport:

Trip Planner

Search our weather history database for the weather conditions in past years. The results will help you decide how hot, cold, wet, or windy it might be!

Date:

Astronomy

Apr. 23, 2013 Rise Set
Actual Time 6:24 AM CDT 8:03 PM CDT
Civil Twilight 5:55 AM CDT 8:32 PM CDT
Nautical Twilight 5:20 AM CDT 9:07 PM CDT
Astronomical Twilight 4:43 AM CDT 9:45 PM CDT
Moon 5:58 PM CDT (4/23) 4:53 AM CDT (4/23)
Length of Visible Light 14h 36m
Length of Day
13h 38m
Waxing Gibbous, 94% of the Moon is Illuminated
Apr 23
Waxing Gibbous
Apr 25
Full
May 2
Last Quarter
May 9
New
May 17
First Quarter

Hourly Weather History & Observations

Time (CDT) Temp. Windchill Dew Point Humidity Pressure Visibility Wind Dir Wind Speed Gust Speed Precip Events Conditions
12:53 AM 37.9 °F 28.5 °F 35.1 °F 89% 30.08 in 10.0 mi NNW 17.3 mph 24.2 mph N/A   Overcast
1:53 AM 36.0 °F 25.3 °F 33.1 °F 89% 30.06 in 10.0 mi NNW 19.6 mph 27.6 mph N/A   Overcast
2:53 AM 35.1 °F 25.5 °F 32.0 °F 89% 30.07 in 10.0 mi NNW 15.0 mph 26.5 mph N/A   Overcast
3:53 AM 35.1 °F 25.5 °F 30.0 °F 82% 30.12 in 10.0 mi North 15.0 mph 24.2 mph N/A   Overcast
4:01 AM 33.8 °F 23.5 °F 30.2 °F 87% 30.12 in 10.0 mi NNW 16.1 mph 24.2 mph N/A   Overcast
4:48 AM 33.8 °F 23.9 °F 30.2 °F 87% 30.08 in 7.0 mi North 15.0 mph 24.2 mph 0.03 in Rain Light Rain
4:53 AM 33.1 °F 23.9 °F 30.9 °F 92% 30.10 in 8.0 mi North 12.7 mph 24.2 mph 0.05 in Rain Light Rain
5:10 AM 33.8 °F 24.3 °F 30.2 °F 87% 30.08 in 10.0 mi North 13.8 mph - 0.00 in   Overcast
5:53 AM 33.1 °F 21.9 °F 30.0 °F 89% 30.08 in 10.0 mi North 18.4 mph 26.5 mph 0.00 in Rain Light Rain
6:53 AM 33.1 °F 22.2 °F 30.0 °F 89% 30.08 in 10.0 mi North 17.3 mph 24.2 mph 0.01 in   Overcast
7:16 AM 33.8 °F 23.9 °F 30.2 °F 87% 30.06 in 10.0 mi North 15.0 mph - 0.00 in   Overcast
7:53 AM 33.1 °F 22.2 °F 28.9 °F 85% 30.10 in 9.0 mi North 17.3 mph 25.3 mph 0.01 in Rain Light Rain
8:41 AM 32.0 °F 21.6 °F 28.4 °F 87% 30.11 in 1.8 mi North 15.0 mph - 0.02 in Snow Light Snow
8:53 AM 32.0 °F 22.5 °F 28.9 °F 88% 30.14 in 0.5 mi North 12.7 mph 23.0 mph 0.03 in Fog , Snow Snow
9:31 AM 30.2 °F 20.8 °F 28.4 °F 93% 30.10 in 0.8 mi North 11.5 mph 21.9 mph 0.02 in Snow Light Snow
9:38 AM 30.2 °F 20.2 °F 28.4 °F 93% 30.10 in 1.0 mi North 12.7 mph - 0.03 in Snow Light Snow
9:48 AM 32.0 °F 23.0 °F 28.4 °F 87% 30.10 in 2.5 mi North 11.5 mph - 0.04 in Snow Light Snow
9:53 AM 32.0 °F 23.0 °F 28.9 °F 88% 30.12 in 2.5 mi North 11.5 mph - 0.04 in Snow Light Snow
10:10 AM 32.0 °F 22.5 °F 28.4 °F 87% 30.09 in 3.0 mi North 12.7 mph - 0.02 in Snow Light Snow
10:22 AM 32.0 °F 22.5 °F 30.2 °F 93% 30.09 in 4.0 mi North 12.7 mph - 0.03 in Snow Light Snow
10:36 AM 32.0 °F 22.5 °F 30.2 °F 93% 30.10 in 2.5 mi North 12.7 mph - 0.03 in Snow Light Snow
10:53 AM 33.1 °F 24.9 °F 30.0 °F 89% 30.13 in 2.0 mi NNW 10.4 mph - 0.04 in Snow Light Snow
11:07 AM 33.8 °F 25.3 °F 28.4 °F 81% 30.11 in 5.0 mi North 11.5 mph - 0.00 in Snow Light Snow
11:53 AM 34.0 °F 24.2 °F 28.9 °F 82% 30.12 in 2.5 mi North 15.0 mph - 0.00 in Snow Light Snow
11:59 AM 33.8 °F 23.2 °F 28.4 °F 81% 30.09 in 3.0 mi North 17.3 mph 21.9 mph 0.00 in Snow Light Snow
12:08 PM 33.8 °F 24.3 °F 28.4 °F 81% 30.09 in 6.0 mi North 13.8 mph - 0.00 in Snow Light Snow
12:53 PM 35.1 °F 25.5 °F 28.9 °F 78% 30.12 in 10.0 mi North 15.0 mph 24.2 mph 0.00 in   Overcast
1:06 PM 35.6 °F 26.6 °F 28.4 °F 75% 30.09 in 7.0 mi North 13.8 mph 21.9 mph 0.00 in Snow Light Snow
1:15 PM 35.6 °F 25.9 °F 28.4 °F 75% 30.09 in 2.0 mi North 16.1 mph - 0.00 in Snow Light Snow
1:22 PM 35.6 °F 27.1 °F 28.4 °F 75% 30.09 in 1.2 mi North 12.7 mph 23.0 mph 0.00 in Snow Light Snow
1:53 PM 34.0 °F 25.5 °F 30.9 °F 89% 30.12 in 1.8 mi North 11.5 mph - 0.00 in Snow Light Snow
2:09 PM 35.6 °F 27.5 °F 30.2 °F 81% 30.08 in 2.0 mi North 11.5 mph - 0.00 in Snow Light Snow
2:22 PM 35.6 °F 28.6 °F 32.0 °F 87% 30.09 in 2.0 mi North 9.2 mph - 0.01 in Snow Light Snow
2:32 PM 35.6 °F 27.1 °F 32.0 °F 87% 30.08 in 3.0 mi North 12.7 mph 19.6 mph 0.01 in Snow Light Snow
2:40 PM 35.6 °F 25.9 °F 32.0 °F 87% 30.08 in 5.0 mi North 16.1 mph - 0.01 in Snow Light Snow
2:53 PM 36.0 °F 28.0 °F 32.0 °F 86% 30.12 in 6.0 mi North 11.5 mph - 0.01 in Snow Light Snow
3:01 PM 35.6 °F 27.1 °F 33.8 °F 93% 30.08 in 8.0 mi North 12.7 mph 18.4 mph 0.00 in Snow Light Snow
3:48 PM 37.4 °F 29.8 °F 32.0 °F 81% 30.07 in 10.0 mi North 11.5 mph 20.7 mph 0.00 in   Overcast
3:53 PM 39.0 °F 32.3 °F 32.0 °F 76% 30.10 in 10.0 mi North 10.4 mph - 0.00 in   Overcast
4:53 PM 39.0 °F 31.0 °F 28.9 °F 67% 30.09 in 10.0 mi North 13.8 mph 21.9 mph N/A   Overcast
5:53 PM 39.9 °F 32.1 °F 28.9 °F 65% 30.09 in 10.0 mi North 13.8 mph - N/A   Overcast
6:53 PM 39.0 °F 31.8 °F 28.0 °F 65% 30.09 in 10.0 mi North 11.5 mph 19.6 mph N/A   Overcast
7:53 PM 37.9 °F 29.6 °F 26.1 °F 62% 30.10 in 10.0 mi North 13.8 mph 19.6 mph N/A   Overcast
8:53 PM 37.9 °F 30.9 °F 26.1 °F 62% 30.12 in 10.0 mi North 10.4 mph - N/A   Overcast
9:53 PM 37.0 °F 30.4 °F 26.1 °F 65% 30.15 in 10.0 mi North 9.2 mph - N/A   Mostly Cloudy
10:53 PM 36.0 °F 27.5 °F 25.0 °F 64% 30.15 in 10.0 mi North 12.7 mph - N/A   Mostly Cloudy
11:53 PM 35.1 °F 26.9 °F 25.0 °F 67% 30.16 in 10.0 mi NNW 11.5 mph - N/A   Scattered Clouds